| time (UTC) | temp F | wind direction | speed MPH | gust MPH | rain 1hr in | rain 24hr in | rain mn in | humidity % | barometer mb |
| 20260904140903 | 46 | 22 | 0.0 | 2.0 | 0.00 | 0.42 | 0.03 | 97 | 1013.0 |
| 20260904140003 | 45 | 121 | 0.0 | 1.0 | 0.00 | 0.42 | 0.03 | 97 | 1013.1 |
| 20260904135403 | 45 | 129 | 0.0 | 1.0 | 0.00 | 0.42 | 0.03 | 97 | 1012.8 |
| 20260904134503 | 45 | 18 | 0.0 | 2.0 | 0.00 | 0.42 | 0.03 | 97 | 1013.0 |
| 20260904133603 | 45 | 60 | 0.0 | 2.0 | 0.00 | 0.42 | 0.03 | 97 | 1012.8 |
| 20260904132703 | 45 | 34 | 0.0 | 2.0 | 0.00 | 0.42 | 0.03 | 97 | 1012.3 |
| 20260904131803 | 45 | 31 | 0.0 | 2.0 | 0.00 | 0.42 | 0.03 | 97 | 1012.5 |
| 20260904130903 | 45 | 35 | 0.0 | 1.0 | 0.00 | 0.42 | 0.03 | 97 | 1012.6 |
| 20260904130003 | 45 | 31 | 0.0 | 1.0 | 0.00 | 0.42 | 0.03 | 97 | 1012.4 |
| 20260904125404 | 45 | 40 | 0.0 | 2.0 | 0.00 | 0.42 | 0.03 | 97 | 1012.8 |
| 20260904124505 | 45 | 27 | 1.0 | 3.0 | 0.00 | 0.42 | 0.03 | 97 | 1012.5 |
| 20260904123603 | 45 | 31 | 1.0 | 3.0 | 0.00 | 0.42 | 0.03 | 97 | 1012.4 |
| 20260904122703 | 45 | 5 | 0.0 | 1.0 | 0.00 | 0.42 | 0.03 | 97 | 1012.5 |
| 20260904121803 | 45 | 28 | 0.0 | 2.0 | 0.00 | 0.42 | 0.03 | 97 | 1012.2 |
| 20260904120903 | 45 | 133 | 0.0 | 2.0 | 0.00 | 0.42 | 0.03 | 97 | 1012.4 |
| 20260904120217 | 45 | 148 | 0.0 | 1.0 | 0.00 | 0.42 | 0.03 | 97 | 1012.4 |
| 20260904115403 | 45 | 66 | 0.0 | 2.0 | 0.00 | 0.42 | 0.03 | 97 | 1012.3 |
| 20260904114503 | 45 | 60 | 0.0 | 2.0 | 0.00 | 0.42 | 0.03 | 97 | 1011.9 |
| 20260904113603 | 45 | 0 | 0.0 | 0.0 | 0.00 | 0.42 | 0.03 | 97 | 1011.6 |
| 20260904112703 | 45 | 0 | 0.0 | 0.0 | 0.00 | 0.42 | 0.03 | 97 | 1011.5 |
| 20260904111803 | 45 | 61 | 0.0 | 1.0 | 0.00 | 0.42 | 0.03 | 97 | 1011.6 |
| 20260904110903 | 45 | 19 | 0.0 | 2.0 | 0.00 | 0.42 | 0.03 | 97 | 1011.7 |
| 20260904110004 | 46 | 33 | 0.0 | 2.0 | 0.00 | 0.42 | 0.03 | 97 | 1011.5 |
| 20260904105403 | 46 | 42 | 0.0 | 2.0 | 0.00 | 0.42 | 0.03 | 97 | 1011.6 |
| 20260904104503 | 46 | 40 | 0.0 | 2.0 | 0.00 | 0.42 | 0.03 | 97 | 1011.6 |
| 20260904103603 | 46 | 67 | 0.0 | 3.0 | 0.00 | 0.42 | 0.03 | 97 | 1011.9 |
| 20260904102703 | 46 | 61 | 0.0 | 2.0 | 0.00 | 0.42 | 0.03 | 97 | 1011.2 |
| 20260904101803 | 46 | 35 | 1.0 | 3.0 | 0.01 | 0.42 | 0.03 | 97 | 1011.4 |
| 20260904101117 | 46 | 62 | 0.0 | 1.0 | 0.01 | 0.42 | 0.03 | 97 | 1011.7 |
| 20260904100003 | 46 | 54 | 0.0 | 1.0 | 0.01 | 0.42 | 0.03 | 97 | 1011.7 |
| 20260904095403 | 46 | 157 | 0.0 | 2.0 | 0.00 | 0.41 | 0.03 | 97 | 1012.0 |
| 20260904094503 | 46 | 145 | 1.0 | 4.0 | 0.00 | 0.41 | 0.03 | 97 | 1011.7 |
| 20260904093603 | 46 | 157 | 2.0 | 4.0 | 0.01 | 0.41 | 0.03 | 97 | 1011.6 |
| 20260904092705 | 46 | 157 | 2.0 | 4.0 | 0.01 | 0.41 | 0.03 | 97 | 1012.0 |
| 20260904091803 | 46 | 160 | 1.0 | 4.0 | 0.00 | 0.41 | 0.02 | 97 | 1011.9 |
| 20260904090903 | 46 | 131 | 1.0 | 3.0 | 0.01 | 0.41 | 0.02 | 97 | 1011.9 |
| 20260904090003 | 46 | 124 | 1.0 | 3.0 | 0.01 | 0.41 | 0.02 | 97 | 1011.7 |
| 20260904085403 | 46 | 120 | 1.0 | 3.0 | 0.01 | 0.41 | 0.02 | 97 | 1011.7 |
| 20260904084503 | 46 | 113 | 0.0 | 4.0 | 0.02 | 0.41 | 0.02 | 97 | 1011.7 |
| 20260904083818 | 46 | 111 | 1.0 | 4.0 | 0.02 | 0.41 | 0.02 | 97 | 1011.7 |
| 20260904082703 | 46 | 125 | 0.0 | 3.0 | 0.02 | 0.41 | 0.02 | 97 | 1011.7 |
| 20260904081803 | 46 | 121 | 0.0 | 3.0 | 0.02 | 0.41 | 0.02 | 97 | 1011.7 |
| 20260904080903 | 45 | 123 | 1.0 | 3.0 | 0.02 | 0.40 | 0.02 | 97 | 1011.9 |
| 20260904080003 | 45 | 108 | 0.0 | 4.0 | 0.01 | 0.40 | 0.01 | 96 | 1011.9 |
| 20260904075403 | 45 | 45 | 0.0 | 1.0 | 0.01 | 0.40 | 0.01 | 96 | 1011.6 |
| 20260904074503 | 45 | 50 | 0.0 | 1.0 | 0.01 | 0.39 | 0.01 | 96 | 1011.7 |
| 20260904073604 | 45 | 0 | 0.0 | 0.0 | 0.00 | 0.39 | 0.00 | 96 | 1011.9 |
| 20260904072703 | 45 | 25 | 0.0 | 2.0 | 0.00 | 0.39 | 0.00 | 96 | 1011.7 |
| 20260904071803 | 45 | 14 | 0.0 | 1.0 | 0.00 | 0.39 | 0.00 | 96 | 1011.7 |
| 20260904070903 | 45 | 0 | 0.0 | 0.0 | 0.01 | 0.39 | 0.00 | 96 | 1011.7 |
| 20260904070003 | 45 | 0 | 0.0 | 0.0 | 0.02 | 0.39 | 0.00 | 96 | 1011.7 |
| 20260904065405 | 45 | 36 | 0.0 | 2.0 | 0.02 | 0.39 | 0.39 | 96 | 1011.7 |
| 20260904064503 | 46 | 33 | 0.0 | 2.0 | 0.02 | 0.39 | 0.39 | 96 | 1011.6 |
| 20260904063603 | 46 | 0 | 0.0 | 0.0 | 0.03 | 0.39 | 0.39 | 96 | 1011.9 |
| 20260904062703 | 46 | 0 | 0.0 | 0.0 | 0.04 | 0.38 | 0.38 | 96 | 1011.7 |
| 20260904061803 | 46 | 0 | 0.0 | 0.0 | 0.04 | 0.38 | 0.38 | 96 | 1011.9 |
| 20260904060903 | 46 | 0 | 0.0 | 0.0 | 0.05 | 0.38 | 0.38 | 96 | 1011.6 |
| 20260904060004 | 46 | 0 | 0.0 | 0.0 | 0.05 | 0.37 | 0.37 | 96 | 1011.9 |
| 20260904055403 | 46 | 0 | 0.0 | 0.0 | 0.05 | 0.37 | 0.37 | 96 | 1011.6 |
| 20260904054503 | 46 | 0 | 0.0 | 0.0 | 0.05 | 0.36 | 0.36 | 96 | 1011.9 |
| 20260904053603 | 46 | 0 | 0.0 | 0.0 | 0.04 | 0.36 | 0.36 | 96 | 1011.6 |
| 20260904052703 | 46 | 0 | 0.0 | 0.0 | 0.04 | 0.35 | 0.35 | 96 | 1011.7 |
| 20260904051803 | 46 | 0 | 0.0 | 0.0 | 0.04 | 0.34 | 0.34 | 96 | 1011.7 |
| 20260904050903 | 46 | 360 | 0.0 | 1.0 | 0.04 | 0.33 | 0.33 | 96 | 1011.5 |
| 20260904050003 | 46 | 0 | 0.0 | 0.0 | 0.03 | 0.32 | 0.32 | 95 | 1011.6 |
| 20260904045403 | 46 | 96 | 0.0 | 1.0 | 0.03 | 0.32 | 0.32 | 95 | 1011.3 |
| 20260904044503 | 46 | 143 | 0.0 | 2.0 | 0.03 | 0.31 | 0.31 | 95 | 1011.7 |
| 20260904043816 | 46 | 150 | 0.0 | 2.0 | 0.03 | 0.31 | 0.31 | 95 | 1011.6 |
| 20260904042703 | 46 | 181 | 0.0 | 1.0 | 0.03 | 0.31 | 0.31 | 95 | 1011.6 |
| 20260904041803 | 46 | 60 | 0.0 | 1.0 | 0.03 | 0.30 | 0.30 | 95 | 1011.7 |
| 20260904040903 | 46 | 60 | 0.0 | 1.0 | 0.03 | 0.30 | 0.30 | 95 | 1011.7 |
| 20260904040003 | 46 | 178 | 0.0 | 2.0 | 0.03 | 0.29 | 0.29 | 95 | 1011.7 |
| 20260904035403 | 46 | 168 | 0.0 | 2.0 | 0.03 | 0.29 | 0.29 | 95 | 1011.5 |
| 20260904034503 | 46 | 165 | 0.0 | 2.0 | 0.03 | 0.28 | 0.28 | 95 | 1011.7 |
| 20260904033818 | 46 | 126 | 0.0 | 2.0 | 0.03 | 0.28 | 0.28 | 95 | 1012.0 |
| 20260904032917 | 46 | 138 | 0.0 | 2.0 | 0.03 | 0.28 | 0.28 | 95 | 1011.6 |
| 20260904031803 | 46 | 166 | 0.0 | 3.0 | 0.03 | 0.27 | 0.27 | 95 | 1011.6 |
| 20260904030903 | 46 | 150 | 0.0 | 2.0 | 0.03 | 0.27 | 0.27 | 95 | 1011.4 |
| 20260904030005 | 46 | 162 | 0.0 | 2.0 | 0.03 | 0.26 | 0.26 | 94 | 1011.3 |
| 20260904025403 | 47 | 161 | 0.0 | 2.0 | 0.02 | 0.26 | 0.26 | 94 | 1011.3 |
| 20260904024503 | 47 | 166 | 0.0 | 2.0 | 0.02 | 0.26 | 0.26 | 94 | 1011.2 |
| 20260904023603 | 47 | 127 | 0.0 | 2.0 | 0.02 | 0.25 | 0.25 | 94 | 1011.3 |
| 20260904022703 | 47 | 122 | 0.0 | 3.0 | 0.01 | 0.24 | 0.24 | 94 | 1011.2 |
| 20260904021803 | 47 | 179 | 0.0 | 3.0 | 0.01 | 0.24 | 0.24 | 94 | 1011.1 |
| 20260904020903 | 47 | 168 | 1.0 | 4.0 | 0.01 | 0.24 | 0.24 | 94 | 1011.1 |
| 20260904020004 | 48 | 162 | 1.0 | 3.0 | 0.01 | 0.24 | 0.24 | 94 | 1011.3 |
| 20260904015618 | 48 | 160 | 1.0 | 4.0 | 0.01 | 0.24 | 0.24 | 94 | 1011.0 |
| 20260904014503 | 48 | 162 | 2.0 | 4.0 | 0.01 | 0.24 | 0.24 | 94 | 1011.0 |
| 20260904013603 | 48 | 170 | 2.0 | 4.0 | 0.00 | 0.23 | 0.23 | 94 | 1011.2 |
| 20260904012703 | 48 | 163 | 1.0 | 4.0 | 0.00 | 0.23 | 0.23 | 94 | 1010.7 |
| 20260904011803 | 48 | 152 | 1.0 | 3.0 | 0.01 | 0.23 | 0.23 | 94 | 1011.0 |
| 20260904010903 | 48 | 158 | 0.0 | 4.0 | 0.01 | 0.23 | 0.23 | 94 | 1010.8 |
| 20260904010006 | 48 | 152 | 1.0 | 3.0 | 0.00 | 0.23 | 0.23 | 94 | 1011.1 |
| 20260904005403 | 48 | 157 | 2.0 | 3.0 | 0.00 | 0.23 | 0.23 | 94 | 1011.0 |
| 20260904004503 | 48 | 154 | 2.0 | 5.0 | 0.01 | 0.24 | 0.23 | 94 | 1011.0 |
| 20260904003817 | 48 | 160 | 2.0 | 5.0 | 0.01 | 0.35 | 0.23 | 94 | 1010.7 |
| 20260904002703 | 49 | 156 | 2.0 | 5.0 | 0.01 | 0.35 | 0.23 | 94 | 1010.8 |
| 20260904001803 | 49 | 156 | 2.0 | 4.0 | 0.01 | 0.35 | 0.22 | 94 | 1010.8 |
| 20260904000903 | 49 | 170 | 2.0 | 4.0 | 0.02 | 0.35 | 0.22 | 94 | 1011.0 |
| 20260904000003 | 49 | 175 | 2.0 | 5.0 | 0.02 | 0.35 | 0.22 | 94 | 1010.8 |
| 20260903235403 | 49 | 165 | 2.0 | 5.0 | 0.02 | 0.35 | 0.22 | 94 | 1010.7 |
| 20260903234503 | 48 | 159 | 2.0 | 4.0 | 0.02 | 0.34 | 0.22 | 94 | 1010.7 |
| 20260903233603 | 48 | 158 | 2.0 | 4.0 | 0.03 | 0.34 | 0.22 | 94 | 1010.7 |
| 20260903232703 | 48 | 160 | 3.0 | 6.0 | 0.03 | 0.34 | 0.22 | 94 | 1010.7 |
| 20260903231803 | 48 | 161 | 3.0 | 6.0 | 0.04 | 0.34 | 0.22 | 94 | 1010.5 |
| 20260903230903 | 49 | 162 | 2.0 | 4.0 | 0.03 | 0.33 | 0.21 | 94 | 1010.6 |
| 20260903230220 | 48 | 162 | 2.0 | 4.0 | 0.03 | 0.33 | 0.21 | 93 | 1010.4 |
| 20260903225404 | 48 | 151 | 2.0 | 4.0 | 0.03 | 0.33 | 0.20 | 93 | 1010.5 |
| 20260903224503 | 48 | 159 | 2.0 | 4.0 | 0.02 | 0.32 | 0.20 | 93 | 1010.7 |
| 20260903223603 | 48 | 163 | 1.0 | 3.0 | 0.02 | 0.31 | 0.19 | 93 | 1010.6 |
| 20260903222703 | 48 | 149 | 2.0 | 5.0 | 0.02 | 0.31 | 0.19 | 92 | 1010.5 |
| 20260903221803 | 48 | 130 | 2.0 | 4.0 | 0.02 | 0.30 | 0.18 | 92 | 1010.5 |
| 20260903220903 | 48 | 163 | 2.0 | 5.0 | 0.03 | 0.30 | 0.18 | 92 | 1010.2 |
| 20260903220217 | 48 | 167 | 2.0 | 4.0 | 0.04 | 0.30 | 0.18 | 93 | 1010.5 |
| 20260903215404 | 48 | 166 | 3.0 | 6.0 | 0.04 | 0.30 | 0.18 | 92 | 1010.3 |
| 20260903214503 | 48 | 171 | 2.0 | 6.0 | 0.05 | 0.30 | 0.18 | 93 | 1010.1 |
| 20260903213818 | 48 | 172 | 3.0 | 6.0 | 0.06 | 0.30 | 0.17 | 92 | 1010.3 |
| 20260903212703 | 49 | 164 | 3.0 | 6.0 | 0.06 | 0.29 | 0.17 | 92 | 1010.2 |
| 20260903211805 | 49 | 167 | 2.0 | 6.0 | 0.06 | 0.28 | 0.16 | 93 | 1010.2 |
| 20260903210903 | 49 | 165 | 1.0 | 4.0 | 0.06 | 0.27 | 0.15 | 92 | 1010.5 |
| 20260903210003 | 49 | 165 | 3.0 | 6.0 | 0.06 | 0.26 | 0.14 | 92 | 1010.2 |
| 20260903205617 | 49 | 166 | 2.0 | 6.0 | 0.06 | 0.26 | 0.13 | 92 | 1010.2 |
| 20260903204503 | 49 | 161 | 1.0 | 4.0 | 0.06 | 0.25 | 0.13 | 92 | 1009.8 |
| 20260903203603 | 49 | 145 | 1.0 | 2.0 | 0.05 | 0.24 | 0.11 | 92 | 1009.9 |
| 20260903202703 | 49 | 163 | 0.0 | 2.0 | 0.04 | 0.22 | 0.11 | 91 | 1010.2 |
| 20260903201803 | 49 | 0 | 0.0 | 0.0 | 0.04 | 0.22 | 0.10 | 91 | 1009.8 |
| 20260903200903 | 49 | 165 | 0.0 | 3.0 | 0.04 | 0.21 | 0.09 | 91 | 1009.9 |
| 20260903200003 | 49 | 152 | 0.0 | 3.0 | 0.04 | 0.20 | 0.08 | 90 | 1009.8 |
| 20260903195403 | 49 | 162 | 1.0 | 4.0 | 0.04 | 0.20 | 0.07 | 90 | 1009.8 |
| 20260903194503 | 49 | 162 | 2.0 | 4.0 | 0.04 | 0.19 | 0.07 | 89 | 1009.6 |
| 20260903193603 | 50 | 169 | 2.0 | 4.0 | 0.03 | 0.19 | 0.06 | 89 | 1009.4 |
| 20260903192705 | 50 | 167 | 1.0 | 3.0 | 0.04 | 0.18 | 0.06 | 90 | 1009.7 |
| 20260903191803 | 50 | 148 | 2.0 | 3.0 | 0.04 | 0.18 | 0.06 | 90 | 1009.4 |
| 20260903190903 | 50 | 157 | 1.0 | 4.0 | 0.04 | 0.17 | 0.05 | 90 | 1009.4 |
| 20260903190003 | 50 | 143 | 2.0 | 4.0 | 0.03 | 0.17 | 0.04 | 89 | 1009.5 |
| 20260903185403 | 50 | 148 | 1.0 | 4.0 | 0.03 | 0.16 | 0.04 | 90 | 1009.5 |
| 20260903184717 | 50 | 149 | 1.0 | 5.0 | 0.02 | 0.16 | 0.04 | 90 | 1009.5 |
| 20260903183603 | 50 | 158 | 2.0 | 5.0 | 0.02 | 0.15 | 0.03 | 88 | 1009.0 |
| 20260903182704 | 50 | 154 | 1.0 | 3.0 | 0.02 | 0.15 | 0.02 | 89 | 1009.0 |
| 20260903182017 | 50 | 163 | 1.0 | 3.0 | 0.02 | 0.14 | 0.02 | 87 | 1008.8 |
| 20260903180903 | 50 | 162 | 1.0 | 3.0 | 0.01 | 0.13 | 0.01 | 86 | 1008.9 |
| 20260903180003 | 50 | 158 | 1.0 | 4.0 | 0.01 | 0.13 | 0.01 | 86 | 1008.8 |
| 20260903175403 | 50 | 160 | 1.0 | 4.0 | 0.01 | 0.13 | 0.01 | 85 | 1008.9 |
| 20260903174503 | 50 | 169 | 1.0 | 4.0 | 0.01 | 0.13 | 0.01 | 85 | 1008.6 |
| 20260903173603 | 50 | 172 | 2.0 | 4.0 | 0.00 | 0.13 | 0.01 | 86 | 1008.6 |
| 20260903172703 | 50 | 163 | 2.0 | 4.0 | 0.00 | 0.13 | 0.01 | 85 | 1008.6 |
| 20260903171803 | 50 | 164 | 2.0 | 6.0 | 0.00 | 0.13 | 0.00 | 84 | 1008.7 |
| 20260903170903 | 50 | 152 | 2.0 | 6.0 | 0.00 | 0.13 | 0.00 | 83 | 1008.5 |
| 20260903170003 | 50 | 168 | 2.0 | 3.0 | 0.00 | 0.13 | 0.00 | 85 | 1008.3 |
| 20260903165403 | 50 | 167 | 2.0 | 4.0 | 0.00 | 0.13 | 0.00 | 85 | 1008.3 |
| 20260903164503 | 50 | 174 | 2.0 | 4.0 | 0.00 | 0.13 | 0.00 | 84 | 1008.3 |
| 20260903163603 | 50 | 163 | 2.0 | 5.0 | 0.00 | 0.13 | 0.00 | 85 | 1008.4 |
| 20260903162703 | 50 | 163 | 2.0 | 4.0 | 0.00 | 0.13 | 0.00 | 85 | 1008.1 |
| 20260903161803 | 49 | 150 | 1.0 | 3.0 | 0.00 | 0.13 | 0.00 | 87 | 1008.3 |
| 20260903161118 | 49 | 155 | 1.0 | 3.0 | 0.00 | 0.13 | 0.00 | 87 | 1008.3 |
| 20260903160003 | 49 | 161 | 2.0 | 5.0 | 0.00 | 0.13 | 0.00 | 89 | 1008.1 |
| 20260903155403 | 48 | 170 | 2.0 | 5.0 | 0.00 | 0.13 | 0.00 | 89 | 1008.0 |
| 20260903154718 | 48 | 160 | 2.0 | 5.0 | 0.00 | 0.13 | 0.00 | 89 | 1008.0 |
| 20260903153603 | 48 | 167 | 2.0 | 7.0 | 0.00 | 0.12 | 0.00 | 89 | 1008.3 |
| 20260903152917 | 48 | 172 | 1.0 | 3.0 | 0.00 | 0.12 | 0.00 | 90 | 1007.9 |
| 20260903152018 | 48 | 165 | 1.0 | 2.0 | 0.00 | 0.12 | 0.00 | 90 | 1007.9 |
| 20260903150903 | 48 | 168 | 1.0 | 3.0 | 0.00 | 0.12 | 0.00 | 90 | 1008.1 |
| 20260903150003 | 48 | 161 | 1.0 | 3.0 | 0.00 | 0.12 | 0.00 | 90 | 1007.8 |
| 20260903145403 | 47 | 169 | 1.0 | 3.0 | 0.00 | 0.12 | 0.00 | 89 | 1007.9 |
| 20260903144503 | 47 | 174 | 1.0 | 3.0 | 0.00 | 0.12 | 0.00 | 89 | 1007.9 |
| 20260903143817 | 47 | 175 | 1.0 | 4.0 | 0.00 | 0.12 | 0.00 | 90 | 1007.8 |
| 20260903142703 | 48 | 175 | 1.0 | 2.0 | 0.00 | 0.12 | 0.00 | 90 | 1007.8 |
| 20260903141803 | 48 | 163 | 2.0 | 6.0 | 0.00 | 0.12 | 0.00 | 90 | 1007.5 |